This demonstration page uses our WeatherBlox Daily Observations layout. Learn more.

Left ArrowRight Arrow

Hourly Observations for May 7, 2020

Temp ( °F °C ) Dew Point ( °F °C ) Humidity (%) Winds ( mph kmh ) Pressure ( in mb ) Visibility ( mi km ) Precip ( " mm )
12:53 am 00:53 Clear 73 22.8 55 12.8 53 53 SSE 20 31 29.91 1013 10 16 0.00 0.00
1:53 am 01:53 Clear 72 22.2 55 12.8 55 55 SSE 18 30 29.90 1012 10 16 0.00 0.00
2:53 am 02:53 Clear 70 21.1 57 13.9 64 64 SSE 20 31 29.88 1012 10 16 0.00 0.00
3:53 am 03:53 Clear 69 20.6 58 14.4 68 68 SSE 17 28 29.85 1011 10 16 0.00 0.00
4:53 am 04:53 Clear 68 20 58 14.4 70 70 SE 20 31 29.83 1010 10 16 0.00 0.00
5:53 am 05:53 Clear 67 19.4 58 14.4 73 73 SE 17 28 29.82 1010 10 16 0.00 0.00
6:53 am 06:53 Clear 66 18.9 58 14.4 75 75 SE 16 26 29.82 1010 10 16 0.00 0.00
7:53 am 07:53 Sunny 66 18.9 58 14.4 75 75 SSE 15 24 29.83 1010 10 16 0.00 0.00
8:53 am 08:53 Sunny 71 21.7 58 14.4 63 63 SSE 13 20 29.83 1010 10 16 0.00 0.00
9:53 am 09:53 Sunny 76 24.4 58 14.4 54 54 SSE 14 22 29.83 1010 10 16 0.00 0.00
10:53 am 10:53 Sunny 83 28.3 56 13.3 40 40 S 12 19 29.80 1009 10 16 0.00 0.00
11:53 am 11:53 Sunny 88 31.1 56 13.3 34 34 SSW 10 17 29.78 1009 10 16 0.00 0.00
12:53 pm 12:53 Sunny 94 34.4 52 11.1 24 24 SSW 13 20 29.73 1007 10 16 0.00 0.00
1:53 pm 13:53 Sunny 101 38.3 44 6.7 14 14 W 23 37 29.67 1005 10 16 0.00 0.00
2:53 pm 14:53 Sunny 102 38.9 39 3.9 11 11 W 17 28 29.64 1004 10 16 0.00 0.00
3:53 pm 15:53 Sunny 104 40 30 -1.1 7 7 W 16 26 29.61 1003 10 16 0.00 0.00
4:53 pm 16:53 Sunny 105 40.6 27 -2.8 6 6 W 14 22 29.57 1001 10 16 0.00 0.00
5:53 pm 17:53 Sunny 105 40.6 25 -3.9 6 6 W 20 31 29.55 1001 10 16 0.00 0.00
6:53 pm 18:53 Sunny 103 39.4 23 -5 6 6 W 20 31 29.54 1001 10 16 0.00 0.00
7:53 pm 19:53 Sunny 100 37.8 22 -5.6 6 6 W 15 24 29.55 1001 10 16 0.00 0.00
8:53 pm 20:53 Clear 92 33.3 23 -5 8 8 SW 8 13 29.57 1001 10 16 0.00 0.00
9:53 pm 21:53 Clear 84 28.9 53 11.7 34 34 SSE 23 37 29.61 1003 10 16 0.00 0.00
10:53 pm 22:53 Clear 82 27.8 55 12.8 40 40 SSE 20 31 29.63 1003 10 16 0.00 0.00
11:53 pm 23:53 Clear 79 26.1 57 13.9 47 47 SSE 10 17 29.64 1004 10 16 0.00 0.00

Powered by AerisWeather